This is the latest recevied weather packets stored in our database for station/object VK5KX. If no packets are shown the sender has not sent any weather packets the latest 10 day(s).
| Time | Temp. | Humidity | Pressure | Rain* | Wind** | Luminosity | Snow |
|---|---|---|---|---|---|---|---|
| 1777705254 | 15.56° C | 92% | 1010.3 hPa | 1.02 mm | - | - | - |
| 1777704337 | 15.56° C | 91% | 1009.9 hPa | 0.76 mm | - | - | - |
| 1777703439 | 15.56° C | 91% | 1010.1 hPa | 0.51 mm | - | - | - |
| 1777702534 | 15.56° C | 91% | 1009.7 hPa | 0.25 mm | - | - | - |
| 1777701634 | 15.56° C | 90% | 1009.7 hPa | 0.25 mm | - | - | - |
| 1777700734 | 16.11° C | 90% | 1009.8 hPa | 0.51 mm | - | - | - |
| 1777699830 | 16.67° C | 91% | 1009.6 hPa | 0.76 mm | - | - | - |
| 1777698928 | 16.67° C | 90% | 1009.4 hPa | 1.02 mm | - | - | - |
| 1777698028 | 16.67° C | 90% | 1009.4 hPa | 1.02 mm | - | - | - |
| 1777697127 | 16.67° C | 89% | 1009.5 hPa | 0.76 mm | - | - | - |
| 1777696225 | 17.22° C | 88% | 1009.8 hPa | 0.51 mm | - | - | - |
| 1777695323 | 17.22° C | 88% | 1009.5 hPa | 0.51 mm | - | - | - |
| 1777694425 | 17.22° C | 87% | 1009.4 hPa | 0.76 mm | - | - | - |
| 1777693526 | 17.22° C | 85% | 1009.6 hPa | 0.76 mm | - | - | - |
| 1777692659 | 17.78° C | 82% | 1009.7 hPa | 0.51 mm | - | - | - |
| 1777691753 | 18.89° C | 77% | 1009.7 hPa | 0.51 mm | - | - | - |
| 1777690822 | 19.44° C | 72% | 1009.8 hPa | 0 mm | - | - | - |
| 1777689921 | 20° C | 74% | 1009.2 hPa | 0 mm | - | - | - |
| 1777689021 | 19.44° C | 75% | 1009.3 hPa | 0 mm | - | - | - |
| 1777688118 | 20° C | 75% | 1009.6 hPa | 0 mm | - | - | - |
| 1777687216 | 20.56° C | 69% | 1009.7 hPa | 0 mm | - | - | - |
| 1777686319 | 21.67° C | 59% | 1009.3 hPa | 0 mm | - | - | - |
| 1777685414 | 21.67° C | 58% | 1009.4 hPa | 0 mm | - | - | - |
| 1777684522 | 21.67° C | 58% | 1009.5 hPa | 0 mm | - | - | - |
| 1777683615 | 21.11° C | 59% | 1009.7 hPa | 0 mm | - | - | - |
* Rain latest hour (hover to see other rain measurements)
** Current wind speed in m/s (hover to see current wind gust speed)